TimeCDT,TemperatureF,Dew PointF,Humidity,Sea Level PressureIn,VisibilityMPH,Wind Direction,Wind SpeedMPH,Gust SpeedMPH,PrecipitationIn,Events,Conditions,WindDirDegrees,DateUTC
12:15 AM,57.2,55.4,94,29.71,7.0,NW,3.5,-,N/A,,Overcast,320,2012-10-02 05:15:00
12:35 AM,57.2,55.4,94,29.70,7.0,NW,4.6,-,N/A,,Overcast,320,2012-10-02 05:35:00
12:55 AM,57.2,55.4,94,29.70,7.0,NW,3.5,-,N/A,,Overcast,320,2012-10-02 05:55:00
1:15 AM,57.2,55.4,94,29.70,10.0,NW,4.6,-,N/A,,Overcast,310,2012-10-02 06:15:00
1:35 AM,57.2,55.4,94,29.71,10.0,NW,3.5,-,N/A,,Overcast,320,2012-10-02 06:35:00
2:15 AM,57.2,55.4,94,29.71,10.0,NW,3.5,-,N/A,,Overcast,310,2012-10-02 07:15:00
2:35 AM,57.2,55.4,94,29.71,10.0,NW,3.5,-,N/A,,Overcast,310,2012-10-02 07:35:00
2:55 AM,57.2,55.4,94,29.72,10.0,Calm,Calm,-,N/A,,Overcast,0,2012-10-02 07:55:00
3:15 AM,57.2,55.4,94,29.72,10.0,NW,3.5,-,N/A,,Overcast,310,2012-10-02 08:15:00
3:35 AM,57.2,55.4,94,29.73,10.0,Calm,Calm,-,N/A,,Overcast,0,2012-10-02 08:35:00
3:55 AM,57.2,55.4,94,29.73,10.0,Calm,Calm,-,N/A,,Overcast,0,2012-10-02 08:55:00
4:15 AM,55.4,55.4,100,29.74,10.0,WNW,3.5,-,N/A,,Overcast,290,2012-10-02 09:15:00
4:35 AM,57.2,55.4,94,29.74,10.0,Calm,Calm,-,N/A,,Overcast,0,2012-10-02 09:35:00
4:55 AM,57.2,55.4,94,29.74,10.0,Calm,Calm,-,N/A,,Overcast,0,2012-10-02 09:55:00
5:55 AM,55.4,53.6,94,29.76,10.0,WNW,3.5,-,N/A,,Overcast,290,2012-10-02 10:55:00
6:15 AM,55.4,53.6,94,29.77,10.0,WNW,4.6,-,N/A,,Overcast,300,2012-10-02 11:15:00
6:35 AM,55.4,53.6,94,29.78,10.0,Calm,Calm,-,N/A,,Overcast,0,2012-10-02 11:35:00
7:15 AM,55.4,53.6,94,29.80,10.0,WNW,3.5,-,N/A,,Overcast,300,2012-10-02 12:15:00
7:35 AM,55.4,53.6,94,29.81,10.0,Calm,Calm,-,N/A,,Overcast,0,2012-10-02 12:35:00
7:55 AM,55.4,53.6,94,29.82,10.0,Calm,Calm,-,N/A,,Overcast,0,2012-10-02 12:55:00
8:15 AM,55.4,53.6,94,29.83,10.0,WNW,3.5,-,N/A,,Overcast,290,2012-10-02 13:15:00
8:35 AM,57.2,53.6,88,29.83,10.0,WNW,5.8,-,N/A,,Overcast,300,2012-10-02 13:35:00
8:55 AM,57.2,55.4,94,29.84,10.0,WNW,5.8,-,N/A,,Overcast,300,2012-10-02 13:55:00
9:15 AM,59.0,55.4,88,29.84,10.0,WNW,6.9,-,N/A,,Mostly Cloudy,290,2012-10-02 14:15:00
9:35 AM,60.8,55.4,82,29.85,10.0,NW,6.9,-,N/A,,Scattered Clouds,320,2012-10-02 14:35:00
9:55 AM,62.6,55.4,77,29.86,10.0,Calm,Calm,-,N/A,,Scattered Clouds,0,2012-10-02 14:55:00
10:15 AM,62.6,55.4,77,29.86,10.0,NW,4.6,-,N/A,,Mostly Cloudy,320,2012-10-02 15:15:00
11:15 AM,68.0,55.4,64,29.86,10.0,NNW,5.8,-,N/A,,Clear,340,2012-10-02 16:15:00
11:35 AM,68.0,55.4,64,29.87,10.0,NNW,5.8,-,N/A,,Clear,330,2012-10-02 16:35:00
11:55 AM,69.8,55.4,60,29.87,10.0,NNW,5.8,-,N/A,,Scattered Clouds,330,2012-10-02 16:55:00
12:15 PM,69.8,55.4,60,29.88,10.0,NW,5.8,-,N/A,,Scattered Clouds,310,2012-10-02 17:15:00
12:35 PM,69.8,53.6,56,29.87,10.0,NNW,5.8,-,N/A,,Scattered Clouds,330,2012-10-02 17:35:00
12:55 PM,71.6,53.6,53,29.87,10.0,NW,5.8,-,N/A,,Scattered Clouds,310,2012-10-02 17:55:00
1:15 PM,71.6,51.8,50,29.87,10.0,NW,6.9,-,N/A,,Clear,310,2012-10-02 18:15:00
1:35 PM,71.6,53.6,53,29.87,10.0,NW,6.9,-,N/A,,Clear,310,2012-10-02 18:35:00
1:55 PM,73.4,53.6,50,29.86,10.0,WNW,8.1,-,N/A,,Scattered Clouds,290,2012-10-02 18:55:00
2:15 PM,71.6,53.6,53,29.85,10.0,WSW,5.8,-,N/A,,Mostly Cloudy,250,2012-10-02 19:15:00
2:35 PM,71.6,53.6,53,29.86,10.0,Calm,Calm,-,N/A,,Scattered Clouds,0,2012-10-02 19:35:00
2:55 PM,73.4,53.6,50,29.86,10.0,West,5.8,-,N/A,,Scattered Clouds,260,2012-10-02 19:55:00
3:15 PM,71.6,53.6,53,29.86,10.0,West,5.8,-,N/A,,Scattered Clouds,260,2012-10-02 20:15:00
3:35 PM,73.4,51.8,47,29.86,10.0,West,5.8,-,N/A,,Clear,270,2012-10-02 20:35:00
3:55 PM,73.4,51.8,47,29.87,10.0,NNW,4.6,-,N/A,,Clear,330,2012-10-02 20:55:00
4:15 PM,73.4,53.6,50,29.87,10.0,Calm,Calm,-,N/A,,Clear,0,2012-10-02 21:15:00
4:35 PM,73.4,51.8,47,29.88,10.0,WNW,4.6,-,N/A,,Clear,300,2012-10-02 21:35:00
4:55 PM,73.4,51.8,47,29.88,10.0,SW,3.5,-,N/A,,Clear,230,2012-10-02 21:55:00
5:15 PM,71.6,51.8,50,29.88,10.0,Calm,Calm,-,N/A,,Clear,0,2012-10-02 22:15:00
5:35 PM,71.6,53.6,53,29.88,10.0,Calm,Calm,-,N/A,,Clear,0,2012-10-02 22:35:00
5:55 PM,69.8,55.4,60,29.89,10.0,Calm,Calm,-,N/A,,Clear,0,2012-10-02 22:55:00
6:15 PM,68.0,60.8,78,29.90,10.0,Calm,Calm,-,N/A,,Clear,0,2012-10-02 23:15:00
6:35 PM,62.6,59.0,88,29.90,10.0,Calm,Calm,-,N/A,,Clear,0,2012-10-02 23:35:00
6:55 PM,60.8,59.0,94,29.91,10.0,Calm,Calm,-,N/A,,Clear,0,2012-10-02 23:55:00
7:15 PM,59.0,59.0,100,29.91,10.0,Calm,Calm,-,N/A,,Clear,0,2012-10-03 00:15:00
7:35 PM,59.0,57.2,94,29.92,10.0,Calm,Calm,-,N/A,,Clear,0,2012-10-03 00:35:00
7:55 PM,59.0,57.2,94,29.93,10.0,Calm,Calm,-,N/A,,Clear,0,2012-10-03 00:55:00
8:15 PM,57.2,55.4,94,29.94,10.0,Calm,Calm,-,N/A,,Clear,0,2012-10-03 01:15:00
8:35 PM,57.2,55.4,94,29.94,7.0,Calm,Calm,-,N/A,,Clear,0,2012-10-03 01:35:00
8:55 PM,55.4,55.4,100,29.96,10.0,Calm,Calm,-,N/A,,Clear,0,2012-10-03 01:55:00
9:15 PM,55.4,55.4,100,29.96,5.0,Calm,Calm,-,N/A,,Clear,0,2012-10-03 02:15:00
9:35 PM,55.4,53.6,94,29.97,7.0,Calm,Calm,-,N/A,,Clear,0,2012-10-03 02:35:00
9:55 PM,55.4,53.6,94,29.97,5.0,Calm,Calm,-,N/A,,Clear,0,2012-10-03 02:55:00
10:15 PM,53.6,53.6,100,29.98,5.0,Calm,Calm,-,N/A,,Clear,0,2012-10-03 03:15:00
10:35 PM,53.6,53.6,100,29.98,4.0,Calm,Calm,-,N/A,,Clear,0,2012-10-03 03:35:00
10:55 PM,53.6,53.6,100,29.99,2.5,Calm,Calm,-,N/A,,Clear,0,2012-10-03 03:55:00
11:15 PM,53.6,53.6,100,29.99,5.0,Calm,Calm,-,N/A,,Clear,0,2012-10-03 04:15:00
11:35 PM,53.6,53.6,100,29.99,5.0,Calm,Calm,-,N/A,,Clear,0,2012-10-03 04:35:00
11:55 PM,53.6,53.6,100,29.99,1.5,Calm,Calm,-,N/A,,Mist,0,2012-10-03 04:55:00